GFSGL_925_rhum_093.txt.gz
RH
95 97 98 91 92 94 98 91 89 94 100 100 100 100 99 100 99 95 88 71 70 65 72 71 63 63 71 67 71 75 75 85 86 74 68 62 61 56 60 59 60 63 57
90 89 90 92 92 97 100 99 99 99 99 100 100 100 100 100 99 98 96 90 91 80 74 87 83 71 83 86 86 82 85 78 82 79 74 69 77 68 57 58 58 60 60
96 95 92 88 89 98 100 88 88 95 97 97 98 99 99 98 96 93 88 92 91 90 89 85 85 86 87 85 84 81 83 85 83 84 78 70 67 70 79 76 72 76 79
98 98 99 93 92 100 98 82 74 76 78 90 88 89 95 93 93 90 88 88 88 88 87 87 86 87 85 84 86 84 84 86 88 90 86 81 75 70 76 80 78 78 84
100 100 100 100 99 100 100 96 85 77 87 94 96 94 88 90 93 94 93 93 94 95 94 92 90 88 85 84 83 84 87 88 87 88 88 84 81 79 80 77 84 82 78
100 100 100 100 100 100 100 100 100 95 83 82 86 95 99 99 95 89 87 92 92 91 93 93 90 84 81 84 87 86 81 85 89 85 80 79 77 75 74 78 80 81 86
95 98 99 99 100 100 100 100 100 100 100 100 100 100 100 100 99 100 99 94 94 92 92 91 91 92 92 94 93 91 90 87 85 83 88 89 87 85 84 82 84 86 86
93 90 93 97 98 98 99 100 100 100 100 100 100 100 100 100 100 100 100 100 100 100 99 96 94 93 93 94 95 98 97 93 92 94 99 96 95 96 98 97 94 91 89
88 88 91 94 94 97 100 100 100 100 100 100 100 100 100 100 92 91 92 97 100 100 100 100 99 100 100 98 100 100 100 100 100 100 100 100 100 100 100 100 100 100 97
91 94 96 94 97 100 100 100 100 100 100 100 100 100 98 99 92 86 82 92 99 100 100 100 99 98 96 98 99 100 100 100 100 100 100 100 98 98 96 96 99 100 100
94 96 98 96 97 100 100 100 100 100 100 100 100 100 99 100 99 99 99 99 100 100 100 100 99 100 100 96 94 95 100 100 100 99 98 96 95 95 96 96 96 97 95
94 94 96 98 98 100 100 100 100 100 100 100 100 100 100 100 100 100 99 99 98 99 100 100 100 100 100 100 100 100 100 99 98 96 97 99 99 97 97 96 95 94 95
95 93 92 94 96 98 100 100 98 97 97 97 96 96 100 100 100 99 99 99 100 100 100 100 100 99 99 98 96 93 91 92 96 96 98 97 99 97 97 99 99 98 95
96 96 92 93 93 94 96 97 97 95 94 93 92 95 98 100 100 100 100 100 100 100 100 99 100 100 100 100 100 100 100 100 100 99 100 100 100 100 100 100 100 100 98
93 95 95 95 93 97 100 100 99 100 100 99 100 100 98 99 100 100 100 100 100 97 100 99 98 98 98 100 100 100 100 100 100 100 100 100 100 99 100 98 91 84 79
91 94 99 96 95 94 93 100 100 100 100 100 100 99 99 98 100 100 100 100 87 96 97 96 99 100 99 99 98 100 100 100 100 100 100 96 89 85 80 78 77 73 68
100 100 97 96 95 94 98 95 96 100 100 100 100 100 100 100 100 100 100 87 80 93 95 99 99 99 98 97 97 95 95 95 92 85 83 82 78 78 73 74 74 69 65
92 90 100 100 100 100 100 100 100 100 100 100 100 100 100 100 100 85 79 78 94 97 97 98 99 99 94 90 87 86 87 87 86 82 86 87 84 78 75 70 73 72 63
99 95 93 96 94 96 100 100 100 100 100 100 100 97 93 99 87 77 79 98 98 98 97 97 99 95 94 93 97 96 95 94 94 93 90 90 90 80 78 78 76 81 71
99 88 91 100 99 100 100 98 96 96 97 99 100 100 100 86 92 98 100 100 100 100 98 97 98 99 99 96 99 97 94 93 91 90 96 95 93 86 84 83 82 76 72
100 99 90 100 100 100 98 96 96 94 92 94 100 96 83 95 97 99 98 100 100 100 100 100 100 100 100 100 99 98 97 99 99 98 97 96 98 91 89 87 85 80 78
100 100 99 99 98 98 95 94 94 92 90 91 95 85 82 99 96 95 98 100 100 100 100 100 100 100 96 96 96 99 94 96 97 100 99 100 96 95 93 90 89 89 85
95 99 98 98 97 91 95 92 93 93 94 97 96 99 100 100 100 100 100 100 96 86 86 98 95 93 75 72 74 89 97 84 73 67 100 100 98 97 98 92 91 88 91
94 100 97 100 100 100 100 100 100 96 99 100 100 100 100 100 100 100 97 97 93 87 82 85 86 84 85 88 100 100 98 81 78 72 68 88 100 98 100 97 96 100 99
92 93 98 100 100 100 100 100 100 100 100 100 100 100 100 100 100 98 91 92 92 97 93 92 95 92 90 90 89 87 88 88 83 85 83 87 89 90 96 100 100 100 100
92 95 100 100 97 98 100 100 100 100 100 100 100 98 99 99 91 90 94 94 93 94 94 94 91 90 93 100 99 94 90 89 86 90 86 98 98 100 100 100 99 100 100

GFSGL_925_rhum_096.txt.gz
RH
95 93 93 96 94 87 82 87 92 97 99 99 100 100 100 100 100 99 95 90 86 76 70 78 79 70 69 67 77 74 77 76 83 77 68 61 59 58 63 64 60 55 49
94 90 95 93 94 94 89 89 90 97 97 96 100 100 99 100 99 95 89 84 83 62 66 82 70 75 82 72 69 74 78 73 86 88 82 70 62 64 68 64 60 63 64
93 95 89 80 86 95 96 89 92 92 95 94 93 100 100 100 100 97 91 85 79 70 75 74 66 77 76 80 80 84 83 81 85 87 76 70 67 63 64 67 70 71 70
92 88 90 87 88 96 93 84 97 96 87 88 90 90 93 96 96 93 91 88 89 88 88 74 74 79 76 81 82 74 77 78 77 79 76 72 68 68 68 68 68 70 73
100 100 99 96 94 95 89 82 87 80 82 89 94 95 93 91 93 94 94 97 98 97 95 96 95 91 87 82 79 76 74 76 79 79 79 77 73 69 67 67 70 70 69
99 100 100 100 100 100 100 100 99 99 98 92 92 92 94 96 96 94 93 95 94 94 90 86 85 86 88 84 80 77 76 78 82 84 80 79 76 73 74 73 73 76 82
97 97 99 99 100 100 100 100 100 100 100 100 100 100 100 100 100 100 97 95 94 89 86 85 84 84 85 87 91 87 86 86 85 85 87 88 86 84 86 84 84 83 82
96 100 99 97 100 100 100 99 100 100 100 100 100 100 100 99 95 96 98 100 100 100 100 100 100 100 100 99 100 100 99 96 98 100 100 100 99 99 100 100 100 100 99
91 92 91 98 95 100 100 99 99 100 100 100 100 100 100 96 90 84 87 93 100 100 100 100 100 100 100 99 99 100 100 100 100 100 100 100 100 100 99 99 98 100 97
92 93 92 92 94 96 100 98 99 98 98 99 100 100 100 100 94 94 99 99 100 100 100 100 96 95 90 87 89 96 100 100 100 100 100 99 98 98 96 96 99 99 100
90 87 92 94 96 96 96 98 95 96 96 98 99 100 100 100 99 97 99 100 100 100 100 100 99 99 97 97 96 99 100 100 99 98 96 95 94 92 92 92 93 98 100
91 92 92 96 95 96 95 94 92 93 92 92 92 96 100 100 100 100 99 100 100 100 100 100 100 100 100 100 100 100 98 95 92 92 94 99 100 99 100 100 100 100 100
80 80 83 87 90 91 91 89 90 90 88 88 90 92 98 100 100 99 100 100 100 100 100 100 100 100 100 100 100 99 96 96 98 98 99 100 100 100 100 100 100 100 100
84 80 80 85 86 86 89 93 93 90 90 90 92 94 97 98 100 100 100 100 100 100 100 100 99 98 99 99 98 97 96 95 98 98 99 100 100 99 99 97 94 98 83
83 83 83 83 88 95 100 99 98 99 100 98 99 99 98 99 100 100 100 100 100 98 95 96 94 94 93 94 96 97 98 97 96 98 95 93 92 89 83 80 73 66 59
78 83 86 84 82 84 88 97 100 100 100 100 97 99 100 100 100 100 100 100 99 96 95 92 93 92 91 90 90 90 91 89 88 85 82 75 71 69 65 64 62 55 50
95 88 88 87 84 86 87 86 90 100 100 100 100 100 100 100 100 100 100 99 97 93 92 92 92 90 88 84 82 78 78 78 75 73 72 73 69 65 64 64 64 57 52
100 100 97 97 97 96 96 96 94 92 92 99 100 100 100 100 100 100 96 92 90 90 88 88 86 82 74 72 71 73 76 78 77 72 78 79 76 70 67 61 63 65 53
96 99 100 100 100 100 98 97 95 94 93 94 94 97 100 100 100 100 98 92 86 80 75 75 78 76 77 78 84 84 85 85 84 84 82 80 82 72 70 70 69 71 63
98 100 99 97 95 94 93 90 89 88 89 91 94 98 93 90 89 89 90 88 84 81 78 77 79 82 84 81 85 84 79 80 80 77 84 86 84 77 74 73 73 67 61
94 95 93 91 90 90 89 86 85 85 82 82 89 98 94 80 81 83 85 88 87 86 88 84 88 90 85 85 83 86 86 88 86 84 84 82 87 80 77 76 74 69 68
88 87 87 87 86 88 82 82 80 75 73 75 79 86 90 86 83 83 88 96 97 93 91 94 90 91 94 94 93 93 89 91 92 92 87 85 82 81 79 77 77 76 72
85 85 81 83 82 84 81 77 80 79 81 82 81 84 87 90 90 90 95 98 97 100 100 99 99 98 100 100 100 100 97 98 100 100 99 91 82 83 83 79 77 76 80
84 83 78 86 86 82 85 87 88 85 83 86 88 89 90 93 95 98 100 100 100 100 100 100 100 100 100 100 100 100 100 100 100 100 99 100 90 86 85 81 79 86 82
88 87 87 86 86 87 85 85 87 88 88 89 90 91 90 93 92 98 100 100 100 100 100 100 100 100 100 100 100 100 81 79 78 78 100 100 100 100 97 90 92 83 84
83 84 85 84 86 86 86 86 88 89 90 92 94 95 96 94 96 100 100 100 100 100 100 100 100 100 100 100 100 100 87 85 91 80 86 100 100 98 96 94 92 90 83

GFSGL_925_rhum_099.txt.gz
RH
92 89 82 71 72 70 76 80 82 88 97 100 100 100 100 100 100 100 99 100 99 92 87 83 76 71 73 76 74 70 68 64 69 55 51 57 59 70 66 65 63 63 70
94 93 89 81 76 82 80 79 79 89 92 100 100 100 100 100 100 99 100 95 88 89 84 85 77 70 74 72 72 77 80 76 73 71 64 66 63 50 48 56 60 56 60
96 92 91 87 83 87 83 84 89 86 92 93 97 100 100 100 100 100 99 98 94 90 90 82 70 78 76 75 67 65 70 69 69 79 70 62 58 62 64 67 67 65 67
98 93 92 90 88 90 85 83 86 86 86 88 94 94 99 99 100 100 99 95 88 82 83 74 63 74 72 69 73 66 71 80 80 82 75 66 63 69 72 72 69 67 68
100 100 98 91 92 94 92 88 84 86 90 87 88 90 90 91 100 100 98 92 88 86 82 80 80 79 78 73 74 72 72 75 81 79 84 82 77 74 73 71 72 71 70
100 100 100 100 100 100 100 94 98 97 98 89 90 95 100 100 100 98 98 100 94 92 94 95 95 93 88 84 83 84 83 86 82 79 79 79 77 78 76 74 75 76 80
100 100 100 100 100 100 100 100 100 100 100 100 100 100 100 100 100 98 96 96 98 98 98 97 97 98 98 100 98 97 94 91 92 97 96 93 93 99 100 99 97 100 99
100 100 100 100 100 100 100 100 100 100 100 100 100 100 100 98 95 97 100 100 100 100 100 100 100 100 99 98 98 99 100 100 100 100 100 100 100 100 100 100 100 100 99
99 99 100 100 100 100 100 100 100 98 99 99 100 99 96 96 98 97 100 100 100 100 100 99 100 100 98 94 94 97 100 100 100 100 100 100 99 96 94 95 96 99 99
99 99 99 99 99 99 100 100 100 94 99 98 97 96 98 97 97 100 100 99 99 99 100 97 96 97 95 88 87 99 100 100 100 100 97 94 91 93 93 92 97 99 100
99 96 98 98 99 98 99 100 100 100 96 99 100 100 97 100 100 100 99 100 100 100 100 100 99 99 100 99 99 100 100 100 96 91 90 90 88 87 90 96 96 100 100
98 99 88 88 94 93 97 98 96 96 93 91 92 97 98 99 100 100 100 100 100 99 100 99 100 100 100 99 95 93 92 91 94 97 99 100 100 100 100 99 93 97 100
86 94 99 94 90 93 96 91 95 95 93 93 92 94 98 99 99 99 99 99 99 99 99 99 99 99 98 95 94 96 98 95 96 97 98 97 99 94 93 97 92 98 84
83 77 83 89 93 95 94 97 100 98 97 98 94 96 98 99 99 100 99 99 99 96 94 94 94 95 95 93 94 92 91 92 96 95 97 97 94 91 92 87 82 86 71
76 79 81 85 86 95 100 99 99 99 100 99 99 99 98 99 100 100 99 98 93 93 90 91 92 93 92 93 94 93 90 91 92 91 89 85 83 80 74 72 67 62 54
77 81 83 81 78 79 86 98 100 100 100 100 99 98 99 100 100 98 98 97 93 94 93 91 95 93 88 86 86 84 83 81 79 78 76 71 67 65 63 64 60 54 45
95 89 83 84 83 84 87 84 92 100 100 100 100 100 100 100 98 97 96 90 93 89 90 91 90 85 79 75 74 73 75 76 73 73 73 73 70 65 62 62 65 58 51
95 98 98 97 95 92 94 93 94 88 91 98 100 100 100 100 100 99 96 87 84 82 80 80 77 73 68 69 70 73 76 78 76 72 76 78 77 70 68 62 61 68 56
96 96 95 96 96 97 96 94 94 91 92 93 93 94 96 96 93 92 90 84 76 71 68 70 74 72 73 76 83 81 82 81 80 82 82 80 82 72 70 69 70 64 59
92 97 99 98 98 95 91 87 85 85 86 88 90 92 92 85 84 84 86 83 79 76 73 72 76 79 81 78 82 83 78 78 78 76 81 83 85 75 72 72 71 65 60
93 90 93 91 88 87 87 83 81 81 78 79 84 89 83 76 77 79 81 84 82 82 84 80 84 86 82 82 82 83 84 86 83 82 81 80 82 76 73 72 70 66 62
74 72 74 76 79 82 75 75 74 71 68 70 75 82 84 81 78 80 85 91 93 89 87 90 87 87 91 92 91 91 87 89 91 94 89 84 78 76 77 73 72 72 69
72 74 68 70 70 73 74 71 74 74 75 76 76 79 82 86 86 86 91 94 93 97 99 98 99 97 100 100 98 97 98 100 100 100 100 94 83 83 86 77 73 73 75
74 74 66 75 81 75 79 80 83 78 75 80 83 82 84 87 89 91 96 98 98 100 100 100 100 100 100 100 100 100 100 100 100 100 100 99 90 88 90 81 76 79 76
78 76 76 76 78 79 77 76 79 81 81 82 83 84 82 85 85 92 96 99 99 100 99 100 100 100 100 100 100 100 75 68 84 78 99 100 94 95 92 87 85 82 81
74 75 76 76 78 78 79 78 80 81 82 84 85 87 87 86 88 92 93 94 97 97 98 98 100 100 100 99 100 96 70 83 67 60 63 100 98 91 93 98 93 84 81

GFSGL_925_rhum_102.txt.gz
RH
87 82 86 79 66 64 75 83 88 96 100 98 97 100 100 100 99 100 99 99 100 99 98 96 88 88 73 70 70 73 76 71 85 68 58 57 59 62 63 64 67 70 69
95 91 88 86 71 67 83 86 85 99 93 96 100 99 100 100 100 100 100 99 96 100 97 97 94 88 80 77 76 71 64 73 74 75 65 62 60 57 56 56 52 57 65
96 92 87 88 76 70 82 84 80 94 95 97 100 99 100 100 100 100 100 99 99 96 95 93 91 87 82 75 73 78 75 74 76 80 76 66 65 65 63 60 61 64 63
99 98 94 91 84 80 83 80 85 92 94 99 99 98 99 99 100 100 100 100 100 97 96 91 91 85 84 78 76 74 73 70 72 75 80 80 75 73 69 68 67 66 70
100 100 100 100 93 90 89 84 82 83 83 82 92 97 99 100 100 100 100 100 100 98 94 90 86 86 81 78 78 76 76 71 73 79 79 77 80 82 84 80 85 84 80
100 100 100 100 100 100 98 95 96 98 98 94 100 100 100 100 100 99 99 100 99 94 92 86 86 83 82 80 77 75 76 78 82 83 83 92 95 86 96 94 93 96 96
100 100 100 100 100 100 100 100 100 100 100 100 100 100 100 100 100 100 100 100 100 100 100 100 100 100 98 99 99 100 98 99 96 98 100 99 99 100 100 98 100 100 99
100 100 100 100 100 100 99 99 100 100 100 100 100 100 100 100 99 100 100 100 100 100 100 100 100 100 100 100 100 100 100 100 100 100 100 100 100 99 100 100 100 100 100
100 100 100 100 100 100 99 100 100 99 100 100 98 96 99 100 100 100 100 100 100 100 100 100 100 99 99 96 100 100 100 100 98 99 99 98 97 92 88 92 94 94 100
99 99 100 100 100 100 98 99 100 99 98 100 99 95 98 100 100 99 98 98 98 98 97 97 97 96 97 98 100 99 98 100 98 94 88 84 79 80 78 86 96 98 99
99 98 98 100 100 99 98 99 100 99 96 98 98 100 97 98 99 99 98 94 97 95 97 97 100 99 96 98 99 99 99 97 93 91 92 92 88 85 82 79 82 92 99
99 100 100 98 98 100 99 98 98 98 99 99 98 100 99 98 97 99 100 100 98 100 100 100 100 100 100 100 100 98 96 98 100 100 100 98 98 100 94 89 88 70 84
96 97 95 95 100 97 96 96 100 99 98 99 99 100 100 99 100 97 97 97 97 97 97 98 98 99 96 92 92 92 92 92 93 97 98 95 91 90 88 89 87 90 59
87 90 96 97 96 97 100 99 98 99 98 99 98 99 100 99 100 99 99 100 99 98 99 100 98 92 88 89 94 94 90 90 96 96 94 90 86 79 74 72 68 68 55
85 88 87 90 90 98 100 100 100 100 100 100 100 100 98 100 100 98 96 96 97 96 95 95 96 96 98 97 88 84 84 88 85 81 77 72 69 70 66 63 57 52 44
93 93 97 98 94 88 94 100 100 100 100 100 98 97 100 100 99 100 99 96 90 86 94 97 96 92 91 89 89 83 79 78 79 78 77 75 69 66 67 69 62 53 46
97 97 97 94 96 97 98 95 99 100 98 99 100 99 99 100 99 95 88 92 94 86 93 92 85 80 76 76 78 83 85 78 76 81 81 82 76 72 64 62 70 70 54
94 92 95 95 94 94 94 94 96 96 97 99 98 97 95 96 96 96 92 82 79 79 83 83 81 79 83 86 83 86 80 82 87 86 84 79 78 73 72 80 67 59 64
93 97 94 91 92 94 91 92 93 94 94 96 93 97 98 91 92 92 88 83 79 77 78 81 82 86 87 79 94 88 85 87 87 84 80 86 85 80 76 76 70 68 62
90 90 94 93 93 92 92 93 94 96 94 90 90 93 95 81 88 87 89 89 87 89 86 88 94 88 88 95 82 86 92 80 89 84 87 84 81 78 80 77 73 69 65
83 83 88 90 91 90 86 84 84 89 88 82 84 85 82 85 88 91 90 93 95 92 95 88 83 87 90 89 99 89 88 92 86 96 94 88 88 80 81 78 74 76 77
75 72 72 76 79 80 75 79 78 74 75 88 86 80 90 89 88 92 91 92 90 98 100 99 99 99 90 95 92 97 98 98 97 87 89 94 95 86 85 91 79 76 81
75 74 70 81 77 84 82 84 90 82 83 85 87 89 90 84 91 97 96 100 98 92 89 86 90 90 100 100 100 93 90 90 100 100 90 94 95 95 94 95 86 93 75
80 81 75 78 74 84 94 92 79 74 85 91 92 90 92 93 98 96 88 89 100 89 92 100 100 94 78 96 97 98 71 67 84 72 95 100 100 94 80 81 88 83 83
81 80 80 80 86 90 86 85 86 89 89 91 95 94 95 95 96 98 97 93 90 99 100 100 91 99 93 100 99 91 75 61 58 54 54 89 100 98 100 100 100 96 82
82 84 86 89 91 87 90 93 89 86 92 89 93 94 94 96 92 97 99 99 86 98 100 100 100 89 100 100 100 95 79 78 64 52 54 86 100 99 96 86 84 88 92

GFSGL_925_rhum_105.txt.gz
RH
90 84 78 84 84 73 68 78 85 89 93 95 100 100 100 100 99 100 100 100 100 100 100 94 95 89 81 77 71 63 56 67 86 75 68 61 60 62 62 63 64 66 65
100 87 86 86 84 74 77 85 86 89 97 100 100 99 100 98 98 100 99 98 95 98 98 97 95 92 90 82 75 66 66 73 74 80 72 64 64 61 60 67 70 69 68
99 99 93 87 86 82 81 84 89 90 99 100 98 97 99 96 96 100 100 95 99 97 94 94 95 96 92 85 81 74 74 77 75 81 78 72 69 68 66 64 62 58 55
100 100 100 97 92 96 85 86 88 92 98 100 93 93 99 100 97 99 100 99 97 98 100 99 98 96 92 93 87 88 79 81 83 82 79 74 71 69 70 70 72 70 71
100 100 100 100 100 100 98 91 84 93 96 94 96 100 100 100 100 100 100 100 100 100 100 100 98 95 92 91 86 89 85 78 77 83 89 86 85 82 79 79 86 90 97
100 100 100 100 100 100 100 100 100 100 100 100 100 100 100 100 100 100 100 100 100 100 100 99 99 100 100 97 92 88 84 86 82 80 80 82 79 83 95 100 100 97 98
99 100 100 100 100 100 100 100 99 100 100 100 100 100 100 100 100 100 100 100 100 100 100 100 100 100 99 100 97 91 88 88 89 88 93 99 100 100 100 99 99 100 100
98 96 100 100 100 100 100 100 99 99 100 100 100 100 100 100 100 100 100 100 100 100 100 100 100 100 100 100 100 100 100 100 100 100 100 100 100 100 98 100 100 100 100
100 99 96 100 100 100 100 100 100 97 99 100 100 99 100 100 100 100 100 100 100 99 100 100 100 100 99 100 100 99 100 100 100 99 99 98 99 98 95 99 97 98 100
100 100 99 99 99 100 99 100 100 100 100 97 98 98 99 99 100 100 100 100 99 100 100 96 96 97 99 100 100 100 99 100 99 98 97 93 83 80 76 85 93 95 99
98 97 97 98 98 100 99 98 100 100 100 100 100 97 96 98 99 99 100 100 99 98 100 100 100 100 100 98 98 98 96 98 97 96 95 88 83 80 72 67 77 88 95
95 96 96 99 98 98 97 98 100 100 100 100 98 100 99 96 98 98 95 97 100 100 100 99 98 100 99 98 96 98 100 98 95 92 91 92 95 93 89 83 51 48 67
88 95 96 97 97 96 96 97 98 96 98 99 98 99 98 97 98 97 97 97 95 95 100 97 96 97 95 97 96 95 92 90 93 97 99 93 86 87 86 85 83 49 47
89 87 89 97 99 98 99 98 100 99 98 99 98 98 98 97 97 98 99 100 100 95 90 87 88 90 92 92 90 92 93 95 97 97 93 76 66 65 62 59 57 55 48
98 100 87 85 95 100 100 100 100 100 100 100 100 99 98 98 98 97 96 97 96 96 93 93 96 98 90 86 86 87 86 82 78 72 67 69 70 65 62 51 45 40 41
98 99 99 98 90 93 99 100 99 99 100 100 97 94 100 99 97 98 98 96 94 89 90 95 95 95 97 93 86 82 80 79 79 76 76 69 66 66 69 64 52 47 44
96 96 96 95 98 99 89 94 100 99 98 99 98 99 100 100 97 95 95 93 82 74 85 86 86 85 87 84 84 88 90 84 77 79 78 74 77 75 63 56 63 59 58
97 90 95 97 95 94 97 99 96 94 99 100 99 99 98 100 99 93 77 72 78 82 88 94 94 94 96 93 85 84 84 80 80 80 83 81 75 74 74 73 68 63 62
86 97 97 94 96 96 96 96 89 85 84 85 91 94 94 98 100 89 76 80 89 93 92 94 95 93 88 95 87 86 88 93 92 78 79 82 80 77 77 72 70 65 63
76 87 90 92 96 92 90 96 88 78 72 84 89 94 84 70 82 90 91 91 92 90 87 87 88 94 95 87 87 84 82 88 87 85 84 89 82 83 78 74 78 83 73
80 80 81 79 88 88 82 90 91 76 62 85 92 92 87 82 85 88 93 94 98 100 93 86 87 88 91 94 93 90 86 82 87 90 92 95 94 87 95 87 72 83 81
76 77 79 76 74 84 85 79 80 94 84 84 92 94 91 93 89 92 90 86 93 97 99 92 90 94 96 94 94 91 90 86 77 80 91 94 94 86 92 91 91 77 82
80 74 76 82 96 79 69 92 92 86 90 91 89 82 78 86 89 93 100 98 87 84 84 81 86 97 96 95 88 81 70 75 78 81 86 92 95 83 84 86 94 85 94
83 85 91 86 80 83 92 85 82 95 97 96 92 94 95 96 90 84 82 97 95 91 99 90 83 80 84 86 80 71 58 50 52 59 83 95 96 93 95 94 95 88 86
84 91 94 94 93 96 97 94 94 95 94 94 95 95 97 98 98 96 90 82 96 94 100 94 92 87 95 98 97 91 80 59 48 45 53 97 99 100 100 96 92 92 91
83 85 90 91 87 89 93 96 96 97 97 99 99 100 99 97 99 100 97 91 80 100 100 100 97 92 98 100 98 90 82 62 55 49 54 89 90 94 95 88 87 94 89

GFSGL_925_rhum_108.txt.gz
RH
100 100 99 99 98 90 85 88 90 89 87 94 98 89 99 98 98 99 99 100 100 100 100 100 100 97 95 94 90 79 80 72 81 74 64 61 62 59 59 61 64 66 67
100 100 100 94 95 96 88 93 94 89 87 87 91 93 99 98 99 100 99 100 100 100 100 100 100 100 99 93 92 85 81 76 61 80 70 66 64 65 62 59 60 60 58
100 100 100 100 99 98 94 97 95 92 92 93 95 97 99 100 98 99 100 100 100 100 100 100 99 100 100 100 98 96 91 82 79 74 74 70 67 69 70 64 63 65 66
100 100 100 100 100 100 100 99 93 93 88 98 94 97 100 100 99 99 100 99 99 99 99 100 97 94 100 99 95 91 83 80 78 80 81 81 78 76 78 73 70 68 70
100 100 100 100 100 99 100 99 100 100 94 100 96 100 100 100 100 100 100 100 100 100 98 96 95 92 95 97 98 96 95 96 97 97 94 90 88 83 78 70 74 73 82
99 100 100 100 100 100 98 100 100 100 100 100 100 100 100 100 99 100 100 100 100 100 100 100 100 100 100 100 100 100 100 100 100 96 92 90 89 88 85 86 86 99 99
100 100 100 100 100 100 99 99 100 100 100 100 100 100 100 100 100 100 100 100 100 100 100 100 100 100 100 100 100 100 100 94 94 89 90 87 91 90 92 99 100 100 100
100 100 100 100 99 100 97 99 98 100 100 100 100 100 99 100 100 100 100 100 100 100 100 100 100 100 100 100 100 100 100 100 100 100 99 98 99 99 100 100 100 100 100
100 100 99 100 100 97 100 99 99 99 97 98 100 100 100 100 100 100 100 100 100 100 100 100 100 100 100 100 100 100 100 100 100 100 100 100 99 96 96 98 99 100 100
100 100 98 98 98 100 98 99 98 100 100 95 100 99 100 100 99 100 99 100 100 99 100 100 100 99 100 100 99 99 98 100 99 99 94 90 91 92 93 98 98 100 96
97 96 98 97 98 98 98 100 98 98 96 96 98 99 98 100 100 96 95 94 99 99 99 100 100 100 100 100 100 99 99 100 99 97 97 94 86 78 80 80 84 92 95
94 96 98 98 97 97 97 97 97 96 98 100 98 98 99 100 99 100 98 96 96 94 99 98 99 100 100 100 99 100 99 96 96 96 94 94 93 70 48 47 56 78 88
84 93 97 96 96 97 96 97 96 96 97 98 98 97 99 98 98 98 97 97 97 97 97 97 96 97 97 97 97 97 95 92 94 92 86 75 84 91 80 48 47 46 46
90 83 87 98 100 100 100 100 100 100 99 98 98 98 99 98 98 96 97 99 98 96 97 98 98 96 96 96 96 94 92 91 88 76 70 65 66 61 61 71 53 42 40
99 100 89 89 96 100 100 100 100 100 100 100 100 100 100 100 99 98 96 96 96 97 96 94 94 92 91 89 86 83 79 78 78 77 73 67 63 53 48 42 41 38 42
100 99 100 96 85 91 96 100 100 99 99 97 97 97 100 100 99 99 99 97 96 94 92 96 98 96 95 96 95 92 87 82 78 69 67 67 68 67 59 52 48 46 49
95 95 95 96 100 91 85 90 96 98 100 100 100 99 98 97 99 100 100 95 82 71 89 98 98 92 92 90 89 87 88 84 78 77 78 78 68 65 65 62 60 56 56
97 96 96 98 98 100 99 97 92 90 95 96 96 99 100 100 98 97 81 72 82 89 93 100 100 95 93 91 88 85 81 81 84 81 78 76 72 71 70 66 63 64 65
89 95 97 95 98 100 92 86 80 79 89 94 86 81 95 100 90 76 71 80 93 96 95 92 93 96 90 89 91 90 86 83 82 85 82 82 78 75 75 73 69 68 66
87 90 85 88 92 96 94 82 66 68 92 94 88 80 75 73 84 90 88 88 90 91 92 96 98 90 90 91 84 87 88 84 84 88 94 86 90 83 78 79 81 77 74
84 82 72 73 88 86 95 85 66 79 92 95 97 87 78 80 92 94 95 95 90 89 91 92 91 94 95 89 85 82 80 87 90 94 95 90 88 94 88 80 76 77 76
84 86 81 83 88 86 85 93 84 75 85 91 96 94 84 81 86 86 85 92 96 97 95 88 88 88 91 91 92 89 84 77 76 90 94 92 84 92 94 92 89 85 84
88 80 74 96 89 72 93 92 96 95 96 91 83 84 87 90 89 89 92 89 88 87 82 82 90 94 94 89 75 57 49 55 62 73 89 93 85 78 88 88 88 79 88
89 89 96 92 84 93 83 89 96 97 96 94 92 91 92 88 86 86 93 95 88 91 91 83 80 78 79 80 79 75 66 51 48 50 77 93 89 93 95 93 96 96 91
87 92 94 94 95 96 97 98 96 97 98 98 98 96 97 96 95 90 86 93 96 97 100 96 89 86 90 94 91 83 77 65 53 46 50 91 97 96 97 94 88 90 94
94 94 94 94 93 93 95 96 97 97 96 98 97 98 98 95 98 97 95 90 80 95 100 100 95 93 94 95 94 84 78 69 65 53 52 85 95 89 93 96 91 94 91

GFSGL_925_rhum_111.txt.gz
RH
100 100 100 100 83 100 96 98 95 93 94 95 96 93 86 87 89 92 98 99 99 100 100 100 98 96 99 91 88 87 85 84 82 78 73 65 59 62 63 65 66 66 63
100 100 99 100 100 100 97 98 100 100 99 99 99 96 92 95 91 95 99 100 100 100 100 100 100 100 100 99 98 97 95 91 86 86 81 70 66 63 67 66 65 64 66
100 100 100 100 100 100 100 99 100 100 100 100 100 99 99 92 94 97 96 99 99 99 100 100 100 99 100 100 100 100 95 92 86 86 70 64 67 66 72 66 70 69 84
99 100 100 100 100 100 100 100 100 100 100 100 99 100 96 93 94 97 93 97 96 99 100 100 100 100 100 100 100 100 99 99 100 97 95 92 88 81 77 73 68 68 84
100 100 100 100 100 99 99 99 99 100 100 100 100 100 100 99 100 100 100 100 100 99 100 100 100 99 94 95 99 100 100 100 100 100 97 97 91 89 81 78 73 78 92
99 100 100 100 100 96 99 96 98 100 99 100 100 100 100 100 100 99 100 100 100 100 100 100 100 100 100 100 98 98 95 100 100 99 98 97 96 88 86 85 86 92 100
100 100 100 100 100 100 98 94 95 98 98 100 99 100 100 100 100 100 100 100 100 100 100 100 100 100 100 100 100 100 100 100 100 99 99 97 94 90 91 90 90 97 97
100 100 100 100 100 100 100 98 99 97 98 98 99 99 100 100 100 100 100 100 100 100 100 100 100 100 100 100 100 100 100 100 100 100 100 99 97 96 95 95 97 99 100
100 100 100 100 100 100 100 100 100 98 96 97 97 98 100 100 100 100 100 100 100 100 100 100 100 100 100 100 100 100 100 100 100 100 100 100 100 100 100 100 100 100 100
100 100 100 100 100 100 99 99 100 100 100 100 98 98 97 98 100 100 100 100 99 100 100 100 100 100 100 100 100 100 99 100 99 98 98 98 97 100 99 99 99 100 97
94 96 96 99 100 100 99 98 98 98 96 97 100 96 98 100 98 99 100 98 98 100 100 100 100 100 100 100 100 100 100 100 100 96 96 91 90 90 90 92 98 98 97
87 94 97 96 97 96 98 97 100 100 97 97 98 98 99 97 98 98 98 100 99 100 100 100 100 99 98 98 97 100 98 99 98 96 96 86 70 65 70 84 89 91 93
83 87 94 96 97 99 98 95 98 95 100 99 98 98 99 97 97 97 98 97 97 96 98 98 98 98 97 97 98 98 96 97 98 96 97 96 71 54 50 45 45 58 73
97 86 84 95 100 100 100 100 100 100 100 100 100 100 100 98 97 97 96 96 97 97 96 97 96 96 96 97 96 97 96 96 94 89 80 75 82 83 53 43 39 33 37
99 100 88 83 90 96 100 100 100 100 100 100 100 100 99 100 99 97 97 96 96 96 96 95 95 96 96 96 96 96 96 92 84 76 66 57 51 48 49 42 38 36 42
99 100 100 97 84 88 92 94 99 100 100 100 99 96 100 100 99 100 99 96 96 96 93 95 96 96 96 96 96 96 95 95 96 94 89 82 67 56 54 52 47 48 54
100 99 97 97 99 84 87 89 85 88 94 100 100 98 99 100 100 100 100 79 77 73 86 96 100 99 98 93 91 90 91 86 80 77 72 70 76 73 63 63 64 56 63
94 93 96 100 98 97 94 88 82 88 90 89 92 97 100 100 100 98 77 70 79 87 92 96 95 92 92 88 84 85 85 80 76 76 74 72 69 64 64 66 66 68 68
93 92 92 92 98 96 89 74 65 83 93 85 75 75 82 92 80 78 78 84 93 95 97 97 93 93 95 93 89 84 83 90 86 83 82 77 74 70 73 69 66 65 62
86 82 76 87 91 96 90 69 71 88 94 88 81 79 77 75 84 88 88 88 92 96 96 94 96 95 91 90 91 87 85 85 91 88 90 92 80 74 79 80 77 73 68
89 86 75 77 90 89 92 74 77 86 89 90 88 83 77 81 94 94 95 92 90 92 92 94 97 95 90 86 83 79 85 90 94 95 88 94 93 86 80 76 74 74 71
87 86 87 89 93 89 91 89 80 84 89 90 94 90 84 80 82 82 85 91 94 94 92 87 86 87 86 82 80 81 79 72 85 96 95 86 86 94 95 91 89 88 80
88 90 86 97 90 82 92 96 95 95 92 88 85 82 82 85 88 90 89 88 87 82 78 80 91 90 87 72 61 56 47 52 59 80 94 93 84 80 89 90 87 80 80
90 90 92 93 93 91 86 96 96 96 96 94 91 91 88 86 85 88 94 97 95 92 89 84 80 85 88 89 84 77 68 56 49 51 84 93 89 93 96 94 95 95 91
90 93 92 96 95 97 98 99 100 99 98 98 96 95 96 96 94 89 90 92 94 97 95 94 89 90 95 95 88 76 71 64 58 48 50 77 96 94 91 91 88 87 92
95 94 97 96 92 92 94 95 96 97 96 97 99 98 99 99 97 94 95 94 87 100 98 95 94 95 92 89 87 84 83 72 66 58 52 61 89 90 83 93 93 90 93

GFSGL_925_rhum_114.txt.gz
RH
100 100 100 100 100 100 85 99 97 91 94 96 94 97 100 100 100 100 100 100 100 100 100 100 100 100 100 100 100 100 96 88 85 92 80 70 80 70 71 70 69 68 66
100 100 100 100 100 100 99 100 100 86 93 96 100 100 100 100 100 100 100 98 92 95 92 99 100 100 100 100 100 98 95 82 81 90 84 84 79 76 65 72 73 73 77
100 100 100 100 99 100 100 100 99 100 99 99 100 100 100 100 100 97 95 90 87 94 98 100 99 100 100 100 100 99 99 95 89 90 96 92 89 83 83 83 83 90 86
99 100 100 100 100 100 100 99 100 100 100 100 98 100 100 100 100 99 93 93 94 98 100 100 99 100 100 100 100 100 100 100 100 96 96 95 86 78 79 82 90 94 86
99 99 100 100 100 100 100 99 99 99 100 100 100 100 100 100 100 100 98 95 93 96 96 98 98 100 100 95 100 100 100 100 100 100 98 97 93 97 95 89 90 95 100
100 100 100 100 100 100 100 100 100 94 97 98 100 100 100 100 100 99 100 100 95 100 99 99 98 100 100 100 100 100 100 99 99 98 98 97 95 92 94 92 96 100 100
100 100 100 100 100 100 100 100 100 100 99 96 98 96 98 98 100 99 100 100 100 100 100 100 100 100 100 100 100 100 100 100 99 96 96 98 95 94 94 100 94 94 96
100 100 100 100 100 100 100 100 100 100 100 100 99 100 93 97 100 98 100 100 100 100 100 100 100 100 100 100 100 100 100 100 100 100 100 100 100 99 99 96 98 99 100
100 100 100 100 100 100 100 100 100 100 100 100 100 100 99 98 97 98 99 100 100 100 100 100 100 100 100 100 100 100 100 100 100 100 100 100 100 100 100 100 100 100 100
100 100 100 100 100 100 100 99 100 100 100 100 98 98 97 99 98 98 96 97 98 99 100 100 100 100 100 100 100 100 100 100 99 100 99 100 100 100 100 100 100 100 99
92 96 96 97 100 96 94 95 95 97 100 100 100 100 100 98 99 99 98 97 98 99 100 100 100 99 100 100 100 100 98 100 100 97 99 98 100 99 99 100 100 100 98
87 92 98 99 98 96 94 92 91 96 99 100 100 100 100 100 100 99 97 97 97 97 98 99 98 99 98 100 99 99 99 99 96 93 90 93 96 96 99 98 97 98 98
91 89 94 97 100 100 100 100 100 99 100 100 100 100 100 100 97 99 97 97 96 96 96 98 97 97 97 97 98 98 98 97 97 96 98 97 91 70 68 86 93 95 95
98 97 86 93 99 100 100 99 98 98 99 99 98 100 100 100 99 93 95 96 96 96 96 96 96 96 96 96 96 96 96 96 96 96 96 96 94 75 52 36 38 46 48
98 98 98 82 86 91 96 100 100 98 99 100 100 100 99 99 100 100 100 97 96 96 95 96 95 95 95 96 96 95 96 96 96 96 95 96 89 50 49 39 33 38 79
100 100 100 99 84 83 80 82 97 100 100 100 99 96 94 99 100 100 100 88 93 91 87 95 98 97 97 96 96 96 95 94 96 95 95 96 96 95 89 63 51 59 78
100 99 95 95 97 94 85 80 83 79 82 96 100 100 100 100 100 100 98 76 74 70 85 95 98 98 98 95 91 89 90 90 85 85 90 85 73 75 68 77 83 82 82
89 89 95 96 94 91 80 67 73 92 83 77 76 83 100 100 100 86 76 69 76 84 90 95 97 91 87 87 87 86 82 77 73 73 70 66 64 65 67 70 69 70 77
88 78 74 90 97 95 81 68 78 90 85 78 69 68 80 82 77 77 76 79 91 95 95 94 95 93 90 86 84 86 84 85 83 76 75 73 69 67 70 67 64 62 58
91 87 79 82 93 97 83 75 78 84 83 81 80 81 77 74 82 86 89 90 93 95 95 95 96 91 90 91 88 85 88 88 87 91 87 77 75 76 76 72 68 67 67
90 86 87 89 91 92 93 82 85 85 86 87 86 83 78 79 91 93 94 92 91 93 94 95 96 90 85 80 76 80 88 92 91 89 94 92 82 78 76 73 71 69 68
94 91 88 95 93 88 97 93 89 92 93 89 89 87 84 82 83 83 85 86 89 95 94 86 82 76 68 61 63 70 71 80 94 94 87 87 93 94 91 89 86 81 78
96 96 95 94 93 87 95 100 97 97 94 90 87 84 82 83 88 92 92 92 87 81 82 92 91 83 77 72 66 56 49 54 72 93 95 89 80 83 90 89 85 82 79
94 95 95 95 95 98 98 99 98 98 96 96 95 93 91 90 87 87 93 97 99 93 86 86 94 95 91 82 73 64 59 53 47 62 86 89 88 91 93 92 94 95 92
96 96 94 96 96 94 93 97 97 97 98 96 96 98 98 97 94 91 92 97 98 100 95 91 92 95 94 88 81 76 72 68 60 50 59 85 97 94 90 89 88 89 90
76 85 94 94 94 91 90 94 96 98 100 99 100 99 98 98 100 100 99 98 94 100 100 100 100 100 98 95 93 91 84 77 68 66 62 74 89 86 80 88 91 90 96

GFSGL_925_rhum_117.txt.gz
RH
100 100 100 100 99 100 100 100 99 100 100 100 100 100 99 99 100 100 100 100 100 100 100 100 100 99 100 100 100 100 100 100 96 93 95 93 99 86 92 89 87 75 73
100 100 100 100 100 100 100 100 100 100 100 100 99 100 100 100 99 100 100 100 100 100 100 100 100 100 100 99 100 100 100 100 97 96 99 97 90 92 94 86 85 88 96
100 100 100 100 100 100 100 100 100 100 100 100 100 100 100 100 99 100 100 100 100 100 100 99 96 94 100 100 100 100 100 100 99 92 97 100 99 87 83 80 94 98 98
98 100 99 100 100 100 100 100 99 100 100 100 100 100 100 99 100 100 99 100 100 100 99 91 93 99 100 99 100 100 100 100 99 97 98 98 96 90 86 94 100 100 100
99 99 100 100 100 100 100 100 100 100 100 99 100 100 100 100 100 99 100 100 100 100 98 90 96 98 97 98 100 100 100 100 100 99 99 98 99 100 99 97 98 99 100
99 100 100 99 100 100 100 100 100 100 100 99 100 98 95 97 96 100 100 99 100 100 94 96 98 94 98 99 100 100 98 99 99 96 94 94 97 98 98 97 99 100 99
100 100 100 100 100 100 100 100 100 100 100 100 100 100 100 100 99 96 99 100 100 100 100 100 100 100 100 100 100 100 100 100 100 98 94 94 94 95 98 100 100 97 92
100 100 100 100 100 100 100 100 100 100 100 100 100 100 100 100 99 100 97 100 98 99 100 100 100 100 100 100 100 100 100 100 100 100 100 98 99 100 98 94 95 96 100
100 100 100 100 100 100 100 100 100 100 100 100 100 100 100 100 100 100 100 93 94 98 99 100 100 100 100 100 100 100 100 100 100 100 100 100 100 100 100 100 100 100 100
100 100 100 100 100 100 100 100 100 100 100 100 100 100 100 100 99 98 96 100 97 96 97 96 99 99 100 100 100 100 100 100 100 100 99 100 100 100 100 100 100 100 99
96 100 100 100 100 100 100 100 99 100 100 100 100 100 100 100 100 98 98 97 99 97 96 99 96 98 100 100 99 100 99 99 100 100 99 100 100 100 100 99 100 100 98
86 92 99 100 100 100 100 100 100 100 99 99 98 99 100 100 100 100 96 94 96 98 98 97 97 98 98 96 98 100 100 98 95 96 96 98 100 100 100 100 99 100 99
87 82 87 92 96 95 96 96 94 96 97 96 97 98 99 100 100 98 100 98 91 99 100 98 98 97 97 97 98 97 96 97 96 97 97 97 100 100 99 98 98 98 97
87 84 78 81 82 90 91 88 91 95 91 92 93 93 95 98 100 100 100 100 100 98 96 94 95 97 97 96 96 96 96 96 96 97 97 95 95 96 96 96 96 96 96
84 86 86 83 82 79 89 100 99 100 99 96 99 99 98 97 99 100 100 100 100 96 100 100 100 99 98 98 97 96 96 96 97 97 97 98 98 97 99 98 98 98 92
80 81 92 90 88 82 76 73 90 100 100 100 100 99 100 100 100 100 100 82 79 83 98 98 100 100 99 100 100 100 96 95 97 97 98 98 98 98 96 92 88 88 90
96 91 88 94 91 86 81 81 81 87 75 79 99 100 100 100 100 100 92 75 67 87 92 95 96 96 95 93 95 98 100 96 95 95 96 96 97 86 78 75 70 64 61
83 77 89 100 100 96 92 96 98 95 90 89 72 78 99 100 100 78 72 87 91 94 92 93 94 94 92 92 93 94 97 96 90 92 93 98 96 89 81 76 76 72 66
99 99 85 90 96 90 85 96 96 91 90 90 87 81 75 80 76 73 75 99 96 96 95 97 100 99 98 98 100 100 100 95 94 90 90 95 96 86 82 79 78 76 67
92 86 88 99 100 100 99 95 91 90 89 90 90 94 93 91 97 100 100 100 100 100 100 100 100 100 100 100 100 100 100 100 100 100 100 100 98 89 85 82 80 72 68
100 100 94 96 99 100 100 100 99 96 94 93 97 87 77 91 96 100 100 100 100 100 100 100 100 100 100 89 93 100 98 100 100 100 100 100 100 93 89 86 81 75 68
100 100 97 97 95 100 100 100 100 100 97 94 97 96 80 98 95 97 100 100 100 100 100 100 94 76 61 65 73 84 84 99 100 99 100 100 100 100 97 94 90 87 79
100 100 94 93 99 99 100 100 100 100 100 100 100 100 100 100 100 100 100 96 98 86 85 89 90 81 72 66 60 54 64 66 87 93 97 100 100 100 100 95 93 88 86
100 99 92 94 100 99 100 100 100 100 100 100 100 100 100 99 100 97 96 96 96 90 87 92 94 89 81 73 70 68 61 54 58 84 87 97 100 97 100 99 98 100 96
96 95 94 94 100 100 100 99 100 100 100 100 100 100 100 96 100 99 98 98 100 100 98 94 95 93 88 84 80 75 69 67 60 58 72 84 87 86 93 100 98 97 95
87 94 96 98 95 96 98 100 100 100 100 100 100 100 100 100 100 98 99 98 97 99 100 100 100 100 96 93 91 86 82 75 65 61 63 74 94 98 99 100 89 99 99

GFSGL_925_rhum_123.txt.gz
RH
99 99 100 100 100 100 98 98 99 100 99 100 100 98 97 99 99 100 99 100 100 98 94 96 91 90 93 97 96 95 96 89 87 77 75 82 88 98 100 100 100 100 100
98 98 98 100 99 100 99 100 100 100 100 100 100 100 100 99 99 99 100 100 100 100 99 64 98 99 99 99 96 95 96 90 87 92 86 95 93 95 94 100 100 100 100
100 95 97 99 100 100 100 100 99 99 100 100 100 100 100 100 100 100 100 100 99 99 99 100 99 100 100 100 99 98 98 96 93 94 88 91 96 98 100 100 100 100 100
97 94 96 98 99 100 100 100 100 100 99 99 100 100 99 100 100 99 99 99 99 99 100 99 100 100 100 100 100 100 99 97 90 88 94 99 99 100 100 100 100 100 100
90 90 92 92 95 99 99 100 100 100 100 100 100 99 100 99 99 99 98 100 100 100 99 100 100 99 100 100 100 100 100 96 92 97 98 99 99 99 98 99 99 100 100
91 91 89 90 93 97 100 100 100 100 100 100 100 100 100 100 100 100 100 100 99 100 100 100 100 100 100 100 100 98 94 94 99 100 98 98 98 98 100 100 100 100 99
97 95 93 92 92 95 96 99 100 100 100 100 100 100 100 100 100 100 100 99 99 99 99 99 100 100 100 100 100 100 100 100 100 99 99 99 98 97 99 100 100 96 90
98 98 97 96 95 98 99 99 99 100 100 100 100 100 100 100 99 97 99 98 96 98 98 100 100 100 99 95 100 100 100 100 100 100 100 100 100 99 99 98 98 97 100
98 100 100 99 98 98 100 99 99 97 99 97 98 100 100 100 100 99 100 99 95 97 98 99 99 100 99 100 99 100 99 100 100 99 100 100 100 100 100 100 100 100 100
90 96 95 98 97 98 96 98 98 97 94 96 94 95 100 100 100 100 100 100 100 100 99 96 98 100 99 100 100 100 98 97 99 98 98 100 99 100 99 100 100 100 100
70 73 79 83 91 91 91 91 92 92 92 94 95 97 91 95 99 100 100 100 100 100 100 100 98 99 99 98 97 97 98 99 98 97 96 96 98 96 99 99 100 100 100
55 59 62 63 70 78 85 87 89 90 90 91 90 90 94 94 98 99 100 99 99 99 100 98 98 99 98 96 97 98 97 97 98 96 96 96 97 95 98 96 97 98 99
47 49 50 53 51 55 60 69 78 82 85 85 88 91 92 93 96 98 100 100 98 97 96 96 96 98 99 98 97 96 97 97 97 97 97 97 97 98 98 97 97 100 98
46 49 51 51 48 46 56 56 66 75 75 78 86 92 92 92 96 97 96 95 99 98 96 92 93 93 95 95 93 93 93 94 96 98 98 97 98 96 97 97 97 96 96
49 51 57 55 55 51 55 72 71 92 82 78 86 87 94 91 95 96 97 95 95 94 94 92 92 94 94 94 96 95 94 96 98 96 96 97 97 98 98 97 97 97 97
59 58 60 59 58 58 58 58 77 84 89 91 90 90 91 91 94 95 96 96 81 85 88 88 92 92 88 87 91 94 93 95 97 95 96 96 96 97 98 98 98 97 97
76 68 65 65 65 66 66 68 69 71 81 96 89 86 85 86 87 89 91 90 82 76 76 82 82 81 73 70 72 73 77 83 83 92 92 92 90 94 94 96 96 96 96
81 76 75 73 74 74 74 77 75 74 72 70 80 79 81 80 82 82 84 74 70 70 68 70 76 74 70 71 77 78 84 90 83 77 82 83 80 76 73 69 70 70 66
74 72 76 74 74 72 72 71 68 66 65 65 65 71 77 83 78 80 83 82 77 72 70 69 73 77 80 86 86 92 90 90 84 91 91 86 87 74 70 70 69 63 53
70 72 70 70 68 66 65 66 64 64 63 64 66 86 75 76 72 74 77 83 81 79 81 75 78 84 87 84 84 87 88 84 86 88 84 88 88 74 72 70 66 59 54
67 64 65 60 61 60 62 64 59 63 67 63 64 96 72 82 77 74 76 83 83 82 88 87 88 84 82 80 83 88 88 91 89 90 82 90 83 82 74 70 65 60 55
60 62 59 58 56 61 64 63 69 69 74 84 74 72 88 86 78 80 88 90 92 88 86 92 92 86 88 91 90 91 88 91 92 95 96 84 82 80 75 74 74 70 59
60 64 64 57 62 65 64 70 69 83 76 72 84 80 80 85 81 85 84 92 90 94 96 91 96 95 95 96 96 96 95 98 98 100 100 95 78 94 82 78 72 73 73
61 68 66 63 66 69 78 78 76 75 75 75 79 88 92 85 83 84 91 95 89 94 97 98 99 99 100 100 100 100 100 100 100 100 100 95 94 91 83 72 74 80 75
68 75 70 71 75 75 77 83 79 78 82 87 91 93 90 88 91 93 92 93 95 92 95 98 99 97 100 100 100 100 72 68 70 78 100 94 89 85 89 79 87 73 82
79 77 76 79 78 86 84 85 86 86 83 85 89 93 85 83 83 88 92 88 95 91 93 93 94 100 98 100 100 82 79 74 65 67 90 96 91 88 93 81 81 77 77

GFSGL_925_rhum_126.txt.gz
RH
100 100 100 100 100 100 99 100 99 99 100 99 99 100 99 100 98 97 100 100 99 100 100 99 92 73 88 67 80 81 87 95 95 85 83 76 75 78 82 82 84 94 99
100 100 100 100 100 100 98 100 100 99 98 100 99 100 100 100 100 99 100 100 100 98 100 100 100 88 70 60 80 95 93 89 96 92 87 82 81 81 84 97 96 98 100
100 99 100 100 100 100 100 100 100 100 100 99 100 99 100 99 99 100 99 100 100 100 100 100 100 98 95 96 98 96 100 97 95 99 92 87 86 93 91 90 97 99 99
98 100 100 100 100 100 100 100 100 99 99 99 97 99 100 99 98 99 100 100 100 100 100 100 99 100 99 100 100 99 99 100 100 100 97 94 92 94 97 98 100 100 100
98 100 100 100 99 100 98 97 99 95 98 100 98 98 99 100 100 99 100 99 99 99 98 99 100 100 100 100 100 100 100 100 98 98 98 99 99 99 97 99 100 100 100
94 95 98 100 99 100 100 100 100 100 100 99 100 100 100 100 100 99 98 99 98 98 98 94 97 97 96 98 100 100 100 100 100 100 99 97 99 98 99 100 99 100 99
95 96 96 96 97 98 98 99 100 100 100 100 100 100 100 100 99 99 96 98 99 99 100 98 98 97 94 93 94 100 100 100 100 100 100 99 97 99 98 100 100 99 95
92 95 95 94 93 94 95 96 97 98 99 100 100 100 100 100 100 99 100 99 99 99 99 100 100 100 99 97 98 98 100 99 98 99 100 100 100 100 100 100 100 100 100
92 92 97 95 95 97 97 96 93 95 98 99 100 99 100 100 100 100 100 100 100 100 100 100 100 100 100 96 99 99 100 100 100 100 97 98 99 99 99 100 100 100 100
72 75 76 86 94 96 97 98 99 94 94 94 96 97 100 100 99 100 100 100 100 100 100 100 100 100 100 98 95 96 98 100 99 98 99 99 99 100 100 100 100 100 100
56 59 59 65 73 82 90 90 92 93 92 94 93 94 95 98 100 100 100 99 100 99 99 100 100 100 100 100 100 99 100 98 97 97 96 96 97 96 98 98 99 100 100
51 54 54 54 56 64 70 80 79 85 86 88 90 91 95 96 99 100 98 99 96 100 100 96 95 97 99 97 96 97 96 95 95 95 97 97 97 96 97 99 99 99 98
48 54 55 56 52 58 64 76 81 77 78 83 88 90 92 94 98 98 99 97 99 90 94 95 90 95 96 91 92 94 94 97 100 98 99 98 97 97 97 97 97 97 100
51 55 57 58 56 56 64 70 85 86 83 87 88 93 95 94 94 93 97 92 89 87 86 86 85 90 87 94 87 85 94 97 99 100 100 98 96 95 97 96 96 96 96
58 59 65 64 62 60 65 73 86 86 86 91 90 92 94 94 87 85 90 94 90 81 82 80 84 94 90 91 93 91 82 89 98 96 96 97 95 96 96 96 97 96 97
69 67 68 70 69 68 68 69 76 83 90 91 89 85 82 82 82 80 85 90 87 75 80 91 90 86 82 82 88 95 95 92 94 93 95 98 98 97 96 94 95 98 98
90 78 76 79 79 78 77 80 80 78 84 94 93 90 80 82 88 80 80 84 82 76 77 82 88 92 92 87 93 87 89 82 91 87 90 88 89 96 94 95 94 95 97
80 79 78 83 83 79 78 78 77 76 77 72 74 93 79 50 90 80 81 79 91 82 83 88 90 90 91 94 85 96 90 88 85 92 91 79 90 75 74 75 76 69 78
78 77 74 74 77 73 73 72 72 73 72 71 73 89 78 59 82 83 89 74 93 94 88 95 89 89 96 92 97 89 96 90 96 97 93 90 91 76 74 74 65 56 57
75 69 66 67 68 69 68 75 70 71 74 76 78 93 82 64 88 86 94 82 82 92 91 94 98 92 82 95 94 98 95 95 93 98 95 91 91 87 76 70 63 57 53
71 66 63 65 64 64 72 68 69 80 78 80 83 95 89 80 91 84 94 92 87 93 90 94 96 98 85 87 88 90 98 96 86 89 97 97 93 82 83 82 68 59 57
65 64 65 65 62 68 71 70 79 79 80 84 81 79 89 87 88 81 91 89 88 92 94 79 96 98 95 98 99 95 99 100 100 90 92 97 94 92 95 73 80 77 65
62 66 71 67 69 72 72 81 80 77 83 82 81 84 90 95 95 91 87 95 93 71 98 81 98 80 76 96 100 98 89 89 96 100 98 97 99 91 88 81 84 78 73
60 72 76 74 75 76 81 81 80 86 81 83 86 87 89 92 90 90 92 98 92 81 78 93 90 98 92 81 89 93 72 66 66 78 97 100 91 82 86 93 84 81 79
74 81 85 88 84 85 83 86 88 85 86 86 87 88 87 88 84 84 86 96 95 90 85 87 99 88 90 98 96 75 71 69 60 60 94 98 96 97 81 83 76 86 68
85 90 93 91 93 93 91 89 90 94 93 89 84 75 68 84 93 88 89 95 98 94 71 90 100 99 88 100 96 87 75 72 68 99 100 100 99 87 91 94 78 95 75

GFSGL_925_rhum_132.txt.gz
RH
100 100 100 100 100 99 100 100 100 100 98 83 75 90 93 97 100 100 100 100 100 98 97 92 89 91 91 90 93 94 98 95 89 70 62 60 69 75 75 77 85 90 78
100 100 100 100 99 99 100 100 100 100 100 100 98 80 88 97 100 98 100 100 99 99 100 100 100 100 100 100 100 100 100 97 95 85 78 80 80 88 74 74 71 84 76
99 99 99 99 99 100 100 100 100 100 100 100 100 100 91 88 100 96 95 100 100 100 99 100 100 100 100 100 100 99 100 100 96 93 92 89 84 83 85 83 82 82 87
99 99 99 99 99 99 100 100 100 100 100 100 100 99 97 99 99 100 94 94 100 99 100 95 99 100 99 99 100 100 100 99 100 100 99 98 94 93 95 94 100 100 99
90 97 99 99 98 99 100 100 100 100 100 100 99 98 100 97 97 98 95 97 96 98 99 99 97 100 99 100 99 100 100 98 99 100 100 100 99 100 98 94 99 96 100
82 86 94 97 98 99 99 100 100 100 100 100 100 100 97 100 99 99 96 94 96 99 98 100 94 96 99 99 100 99 99 99 99 99 100 100 99 100 99 100 100 98 98
82 77 75 92 97 97 100 100 99 100 100 100 100 100 99 100 100 99 95 96 98 98 99 100 100 98 95 98 100 98 99 100 100 100 100 100 100 100 100 99 99 100 100
85 83 73 70 86 93 97 100 100 98 99 100 100 100 100 100 99 99 100 100 100 100 100 100 100 100 100 97 94 93 95 98 100 100 100 100 100 99 100 100 100 99 97
85 89 87 80 76 83 91 94 99 99 96 96 100 100 100 100 99 100 100 100 100 100 98 100 95 100 100 100 100 100 96 93 94 96 96 95 95 96 96 94 98 99 99
79 80 84 78 82 89 89 88 84 89 94 86 80 77 99 98 98 99 95 100 100 100 99 96 96 86 97 100 100 100 100 98 90 84 84 88 90 93 93 97 100 100 100
70 74 78 86 86 82 87 88 84 85 79 80 82 83 83 98 94 98 98 91 90 100 100 100 99 93 96 95 91 100 100 91 87 87 90 93 90 92 98 99 100 100 100
72 74 75 79 88 82 82 84 80 84 85 84 80 82 90 86 91 96 99 94 83 85 93 89 99 98 99 99 86 89 86 91 98 100 100 100 100 99 93 96 100 100 100
80 85 81 77 83 86 89 90 87 81 89 84 82 83 84 85 83 79 99 99 81 84 87 79 82 77 74 73 73 79 87 94 100 100 100 100 94 94 91 91 91 87 88
79 88 89 86 82 85 88 93 93 91 94 87 83 82 83 86 87 83 90 95 90 76 70 70 72 74 70 71 76 77 83 93 95 94 90 90 87 84 88 91 91 91 88
75 84 85 86 85 76 79 90 100 100 100 94 89 73 74 79 80 81 81 92 93 91 69 70 74 80 90 92 87 85 91 91 97 97 93 85 78 86 84 86 88 91 98
75 74 74 81 75 80 78 66 76 95 98 98 94 83 72 72 75 81 77 78 88 82 90 94 93 92 100 100 100 100 100 97 98 100 97 98 92 81 74 74 79 91 96
76 68 72 76 82 79 65 64 83 76 82 100 100 91 78 72 71 78 76 69 77 64 89 100 95 88 100 100 100 100 100 99 94 97 100 98 99 87 71 67 68 77 80
66 65 65 73 76 68 59 81 83 80 86 86 94 91 85 79 78 85 77 56 59 58 67 84 100 93 92 99 93 96 100 94 88 95 95 96 97 100 88 68 64 74 69
70 64 61 70 68 68 64 66 76 65 78 85 82 76 77 88 99 92 77 71 67 64 63 65 77 87 87 88 92 88 92 93 90 87 95 95 96 99 96 82 65 64 63
73 72 64 65 68 68 69 67 81 70 70 81 76 79 77 80 84 95 93 87 79 72 69 72 73 76 74 73 89 87 83 76 73 83 94 95 96 97 100 95 71 69 74
59 64 76 78 77 77 76 71 73 76 72 77 73 66 64 74 95 95 97 95 92 85 72 69 77 77 78 75 78 88 78 63 56 76 91 96 98 96 98 91 78 69 68
72 76 72 67 74 86 90 85 81 81 82 83 78 72 65 63 71 90 93 96 100 95 82 70 71 70 75 80 79 76 69 67 64 60 75 97 97 96 98 91 81 71 68
68 73 79 84 86 86 96 97 96 97 97 92 93 96 94 94 82 69 87 86 86 94 89 78 77 77 84 86 74 84 87 77 71 68 98 100 98 98 98 98 81 79 76
75 86 91 94 97 92 93 97 100 99 97 99 99 99 90 80 95 98 83 91 88 92 96 90 84 87 96 89 81 85 93 82 72 96 100 100 100 100 96 84 89 79 79
86 79 80 98 88 92 95 95 94 95 92 97 96 94 94 100 100 86 89 99 86 78 83 94 83 84 92 91 92 93 93 80 77 100 100 100 100 99 96 88 96 82 75
81 81 87 92 98 100 99 93 95 99 100 100 90 85 85 100 99 93 89 88 97 90 81 88 82 88 88 93 95 96 91 88 82 100 100 100 100 95 95 90 93 82 78

GFSGL_925_rhum_135.txt.gz
RH
100 100 100 100 100 100 100 100 100 100 100 100 100 99 96 99 100 99 95 87 94 98 100 95 88 84 88 82 84 87 90 90 92 85 81 78 71 73 79 80 86 87 69
100 100 100 100 100 100 100 100 100 100 100 100 99 100 100 94 98 99 100 99 97 99 99 100 100 100 100 97 97 98 98 96 92 90 85 80 73 69 72 72 70 72 72
98 100 100 99 100 99 98 100 99 100 100 100 100 100 100 100 92 92 97 100 100 100 99 100 100 100 100 100 100 99 100 100 100 94 89 85 90 80 79 83 80 72 75
81 94 99 98 99 99 99 98 98 99 100 100 100 100 100 100 100 100 84 91 99 97 99 98 100 100 99 99 96 99 99 99 100 100 100 98 96 92 92 94 94 89 85
71 76 92 97 98 99 98 97 97 98 100 99 100 100 100 100 100 100 98 99 92 98 99 98 97 99 99 97 98 99 99 99 100 99 100 100 100 100 100 100 100 100 97
77 73 79 83 93 97 99 97 97 98 98 100 100 100 100 100 100 95 93 97 97 96 99 97 99 97 99 99 99 94 98 98 100 100 100 100 100 100 99 100 100 99 98
84 78 77 84 81 88 95 93 94 98 100 100 100 100 100 100 100 100 96 94 95 97 96 98 95 95 96 96 92 94 95 96 99 100 100 99 100 100 100 99 100 100 100
94 87 84 83 87 82 86 92 94 94 98 100 100 100 100 100 100 100 96 96 99 100 100 96 100 100 99 97 97 93 93 94 97 99 100 100 99 100 100 100 100 100 95
91 98 93 89 88 88 87 89 89 91 95 100 100 100 100 97 96 100 98 100 100 100 100 100 91 100 100 99 99 98 89 87 88 91 96 98 99 100 98 91 99 100 99
89 93 94 92 90 92 91 89 84 84 88 97 100 100 100 100 92 93 97 100 100 100 100 100 100 100 100 100 100 100 100 100 93 82 82 86 88 91 100 100 100 100 100
86 84 84 92 93 91 88 88 86 85 85 86 97 100 96 92 94 92 96 99 100 100 100 100 100 98 99 98 92 100 100 100 100 100 100 91 87 90 91 99 100 100 100
82 83 86 89 94 89 87 91 94 91 88 83 85 94 100 90 90 90 96 97 86 92 97 97 94 87 78 90 92 88 91 93 98 98 100 96 95 92 90 87 98 99 98
82 87 90 83 89 98 100 99 97 96 94 85 81 93 96 98 91 91 90 96 91 74 73 68 67 66 66 68 81 78 84 92 95 99 100 90 83 88 86 81 81 92 88
82 87 88 95 84 87 99 100 100 97 96 93 86 85 88 91 86 83 89 98 99 80 67 63 60 61 66 72 73 78 85 91 100 100 98 89 79 72 77 84 90 89 89
74 83 80 79 80 68 65 92 97 99 96 96 88 76 86 84 80 76 73 80 84 84 75 79 81 88 89 84 84 84 89 88 97 100 100 100 96 88 74 68 68 90 96
77 80 79 76 66 61 67 69 77 95 93 91 85 80 75 76 77 76 74 71 72 51 59 95 91 89 100 100 100 100 98 98 92 98 98 98 100 100 95 69 65 74 87
66 70 75 70 63 66 79 73 69 60 64 93 89 86 81 78 78 81 78 71 75 55 64 69 83 85 96 100 100 100 100 97 87 84 97 99 100 97 100 92 74 68 72
61 71 74 68 65 64 60 73 61 66 80 70 59 74 74 85 85 88 88 66 69 64 63 68 76 79 76 81 92 94 87 79 71 76 83 95 98 100 100 100 86 81 77
69 66 70 70 69 70 64 70 69 64 68 68 60 52 53 58 66 74 78 83 82 79 70 67 71 74 76 76 75 81 86 71 55 53 74 94 97 98 97 100 95 75 75
64 71 74 75 80 83 81 78 78 82 79 82 80 74 68 62 60 67 69 77 85 86 82 72 68 68 73 76 78 77 70 65 64 58 64 92 98 98 98 100 94 83 73
71 79 79 73 78 88 96 98 97 98 98 98 95 96 98 97 92 86 92 91 94 96 92 83 71 67 70 77 80 72 82 84 76 65 70 91 99 97 97 100 97 83 77
81 69 73 87 95 97 99 97 100 99 95 94 93 87 86 75 78 98 97 92 94 88 90 95 82 76 78 84 88 80 84 91 82 72 87 100 100 100 99 98 96 82 78
74 81 89 97 90 85 82 87 91 90 92 92 94 94 90 94 94 96 86 91 98 98 90 98 91 85 84 92 97 88 89 96 87 79 100 100 100 100 100 98 99 92 79
80 79 87 88 85 90 96 95 92 88 87 97 90 86 84 91 100 98 89 84 89 97 99 94 95 92 85 88 98 98 98 100 87 83 100 100 100 100 100 98 96 96 80
78 76 77 87 91 90 86 83 86 94 100 99 86 79 78 80 100 98 89 83 78 88 90 97 99 93 86 87 90 99 100 100 95 90 100 100 100 100 99 98 98 93 84
80 84 88 88 86 84 83 92 99 99 94 83 77 75 97 100 100 87 79 73 70 70 88 97 98 97 94 91 83 91 97 98 96 92 100 99 87 92 96 100 100 95 88

GFSGL_925_rhum_138.txt.gz
RH
97 100 99 100 99 98 98 99 100 100 100 98 100 100 99 100 99 100 90 77 93 92 93 98 96 90 98 93 88 86 82 85 84 77 77 71 77 74 79 75 61 64 76
84 99 99 98 99 99 98 100 99 99 100 100 100 100 100 100 100 100 100 100 100 100 100 95 97 99 100 100 100 100 100 95 89 90 86 82 76 80 73 62 69 70 76
79 89 99 98 99 98 98 99 99 99 100 100 100 100 100 100 100 100 100 100 98 99 99 99 100 97 99 100 100 100 99 99 100 94 89 86 80 76 74 76 79 75 76
76 77 90 100 100 98 98 97 96 98 97 98 100 100 100 100 100 100 100 100 100 100 98 95 95 99 97 100 99 100 100 100 99 99 98 95 96 95 91 98 99 90 92
77 78 83 86 95 99 97 97 96 96 96 99 100 100 100 100 100 100 97 100 100 100 100 100 100 100 99 98 98 99 98 100 97 99 100 100 100 99 100 100 100 99 99
83 83 81 85 81 93 94 97 97 96 96 96 98 98 97 99 98 98 99 100 100 100 100 100 99 97 100 98 98 99 99 99 100 98 98 99 99 97 95 97 100 99 99
90 86 87 86 88 87 87 91 98 100 98 97 100 100 99 100 99 98 100 100 100 100 100 100 100 95 95 97 98 97 95 96 96 99 100 97 97 95 98 97 98 98 100
97 95 91 88 91 88 89 91 92 98 100 100 100 99 100 98 95 100 100 100 100 100 100 100 100 100 98 96 95 95 95 96 97 97 99 98 98 100 100 100 100 99 93
97 100 99 95 95 97 94 93 91 94 99 98 100 100 98 100 94 97 98 100 100 100 100 97 94 95 100 94 90 96 94 94 92 96 97 93 88 96 100 97 100 99 99
94 96 97 95 94 96 99 95 88 87 94 100 94 92 98 94 90 94 100 100 100 100 100 100 98 98 100 100 97 99 100 100 94 86 80 78 84 85 90 99 100 100 100
89 90 91 99 96 96 93 94 90 85 83 85 96 93 73 90 87 89 94 100 100 100 100 100 98 97 98 100 100 100 100 86 86 84 81 76 77 78 82 88 98 100 100
84 84 89 91 98 99 96 95 98 93 89 90 94 98 90 84 83 84 85 88 79 92 100 100 97 96 98 100 99 97 77 79 82 86 91 94 87 77 79 82 88 94 95
83 84 88 84 84 92 92 90 96 96 94 91 93 96 97 95 87 87 85 84 76 60 76 80 64 49 51 60 98 82 76 85 94 99 100 94 90 81 68 68 73 80 87
80 83 79 82 66 78 98 99 99 97 94 94 93 92 93 95 87 79 83 75 69 48 45 45 46 48 48 49 50 62 76 80 94 100 100 93 85 81 76 68 66 68 81
75 82 81 70 73 71 79 92 92 96 90 93 88 84 92 95 83 78 76 79 74 71 65 62 62 72 83 75 67 64 64 65 78 83 95 96 92 91 90 82 75 75 89
72 81 75 68 66 74 68 56 60 82 82 82 81 80 80 81 82 81 77 76 79 69 66 70 78 80 96 100 100 98 92 78 65 67 78 92 99 99 100 95 87 82 88
70 74 67 64 64 61 67 62 61 50 51 56 74 73 77 78 78 79 80 79 83 68 68 72 75 75 86 92 94 98 100 69 57 55 76 100 100 100 100 100 100 98 90
61 66 67 68 69 69 64 70 72 69 70 64 58 70 63 77 74 74 86 62 80 81 79 75 74 75 76 82 80 76 70 71 69 59 58 77 100 100 100 100 100 100 96
68 75 74 73 78 81 82 82 80 80 83 87 82 76 81 72 70 65 56 65 82 85 87 82 76 72 76 80 82 74 75 80 77 70 62 71 97 100 99 100 100 95 93
67 74 78 77 76 86 93 92 93 90 91 92 90 91 91 90 89 84 79 76 71 74 79 88 86 79 74 77 83 83 78 82 86 78 71 86 98 100 100 100 100 100 100
77 79 69 80 92 94 96 98 96 96 96 96 95 99 100 100 100 95 94 96 98 97 96 92 87 87 81 81 91 96 90 89 95 83 79 89 98 100 100 100 100 100 100
76 73 82 93 96 90 90 96 96 93 94 95 90 85 82 82 93 96 93 87 84 97 100 100 95 88 87 86 93 99 98 98 97 88 83 93 100 100 100 100 100 99 98
72 77 86 87 85 91 95 92 86 86 92 98 92 84 78 77 88 99 96 88 82 77 81 94 96 94 93 95 93 98 100 100 100 96 93 99 100 100 100 100 100 100 100
73 76 78 82 86 87 83 79 84 92 99 94 84 77 79 91 100 100 89 80 75 70 67 73 93 97 97 98 94 92 97 100 100 99 93 100 100 100 100 100 100 100 99
75 76 81 86 85 82 78 84 94 95 90 83 77 76 85 99 100 95 83 75 69 63 57 61 70 98 98 98 98 89 97 99 98 97 90 97 100 99 97 100 100 100 98
76 79 81 81 78 77 83 92 94 88 82 78 85 94 100 100 97 87 78 71 66 61 62 67 70 89 98 98 99 88 90 92 97 93 88 97 99 100 100 100 99 100 100

GFSGL_925_rhum_141.txt.gz
RH
91 100 99 98 99 99 99 99 100 100 100 100 100 100 100 100 100 100 99 98 95 95 99 98 93 88 84 97 99 87 71 66 69 74 79 78 78 79 73 68 86 89 78
86 97 100 100 96 99 99 99 98 100 100 100 100 100 100 100 100 100 100 100 100 100 100 100 100 99 92 93 100 99 83 71 65 75 92 89 85 79 74 70 76 91 78
84 88 94 100 100 97 97 97 98 100 100 99 99 100 100 100 100 100 100 100 100 100 100 100 100 100 100 98 98 99 99 99 92 70 88 94 90 89 96 99 96 94 96
82 83 88 95 96 100 99 99 97 98 100 98 98 99 99 100 100 100 100 100 100 100 100 100 100 100 99 100 99 100 99 99 100 100 90 100 100 100 100 100 98 100 99
67 70 76 81 87 89 93 100 100 99 100 98 98 97 98 98 100 99 100 100 100 100 99 100 100 100 100 100 100 100 98 99 100 100 99 100 100 100 100 98 99 97 100
66 68 66 66 68 78 86 96 97 97 99 99 100 99 100 99 98 98 99 98 97 97 97 100 100 99 100 100 98 97 98 100 100 100 100 99 100 100 100 100 100 99 98
72 69 70 68 68 70 70 83 89 96 99 100 100 99 97 99 98 100 100 97 98 97 99 97 99 98 99 100 100 96 96 96 98 96 98 99 98 100 97 98 100 100 100
82 76 75 71 71 72 73 78 83 84 91 99 98 97 94 91 94 93 96 93 99 100 100 100 100 100 100 100 100 100 100 99 97 97 96 98 98 97 98 98 99 99 96
91 96 85 82 78 81 81 81 82 88 89 88 98 98 97 87 85 90 76 84 90 100 100 97 97 98 100 99 98 99 100 100 100 97 96 94 95 94 87 91 96 96 99
89 95 100 94 96 96 91 87 84 81 90 91 90 94 90 92 80 81 83 82 93 93 93 95 94 96 98 100 100 100 100 100 95 86 75 76 82 86 90 91 100 97 97
83 80 90 93 93 95 99 91 90 88 89 93 92 92 90 84 81 75 77 91 90 87 93 94 94 94 94 99 100 100 100 100 96 99 96 98 94 75 74 88 92 100 100
75 76 73 71 81 85 91 89 87 86 86 87 85 88 92 90 83 77 75 70 70 86 92 91 88 87 91 93 96 91 63 90 98 96 96 97 99 100 94 66 67 79 92
68 68 61 59 69 78 79 81 80 80 78 77 79 84 87 88 84 89 82 80 78 72 75 72 85 63 73 72 91 81 82 98 98 95 95 99 100 100 100 98 90 65 83
66 60 58 61 64 69 70 70 76 74 74 75 78 82 86 83 84 79 84 83 80 76 87 81 83 84 75 83 81 87 87 92 93 95 97 100 100 100 98 100 92 89 86
65 60 57 61 58 57 61 73 74 80 75 75 81 82 84 86 83 76 75 80 80 84 84 82 82 83 83 84 85 88 86 83 80 82 87 89 89 90 88 90 88 84 78
61 61 64 63 65 65 60 56 74 77 77 78 75 77 81 75 74 75 76 79 83 82 82 82 84 83 81 79 79 78 80 81 80 72 74 78 85 86 86 81 79 80 75
69 68 71 74 74 73 77 81 77 76 62 79 91 89 87 82 76 77 80 82 93 83 80 81 84 83 76 75 74 74 76 85 82 75 72 75 89 90 85 81 79 78 75
71 71 83 87 86 91 89 94 99 97 92 89 71 85 72 90 93 88 92 79 77 76 78 77 81 81 76 74 77 79 83 86 87 86 84 88 94 96 92 86 83 85 82
86 81 76 75 79 82 98 100 100 96 95 94 92 91 84 70 84 75 81 98 97 85 83 80 82 81 82 84 99 100 100 98 99 95 92 92 99 98 94 91 89 89 87
73 76 70 90 100 99 100 100 97 97 95 96 97 100 100 93 94 97 99 100 99 97 98 93 90 88 93 91 92 98 90 94 93 90 93 95 97 100 95 93 90 87 81
79 82 71 99 100 100 100 100 100 99 97 95 99 100 83 97 100 100 100 100 100 100 100 100 100 100 97 91 88 91 95 98 98 97 96 96 100 98 96 94 92 89 85
71 92 97 98 100 100 100 100 100 96 95 96 97 94 79 98 96 97 100 100 100 100 100 100 100 100 100 100 100 100 100 100 100 100 99 100 99 96 96 95 93 91 88
70 91 96 95 96 94 97 94 95 97 100 100 99 95 96 99 100 100 100 100 100 100 99 94 100 100 100 100 100 100 100 100 100 98 100 100 100 97 99 94 93 92 90
72 88 91 99 90 96 99 100 100 98 98 100 100 100 100 100 100 100 100 100 98 95 70 73 83 97 100 100 100 100 100 95 95 100 96 100 100 100 100 98 95 94 95
73 81 91 96 92 91 100 100 100 100 100 100 100 100 100 100 100 100 100 100 99 91 66 66 76 86 77 95 100 100 100 95 92 96 100 100 100 100 100 100 100 100 94
78 76 82 94 97 100 100 100 100 100 100 100 100 100 100 100 100 100 100 100 95 79 89 100 86 88 92 99 100 100 97 91 90 93 89 100 100 100 100 100 100 100 95

GFSGL_925_rhum_144.txt.gz
RH
81 83 94 100 99 96 96 98 100 99 98 99 99 100 100 100 100 100 100 100 100 100 100 100 96 86 85 89 89 84 93 83 90 64 67 77 90 88 82 86 85 89 87
92 90 85 99 100 100 100 99 100 98 97 98 99 100 100 99 100 100 100 100 100 100 100 100 100 100 100 100 95 94 94 92 96 92 73 81 82 90 91 95 88 86 88
79 84 86 90 94 96 98 100 97 98 97 98 99 100 99 99 100 100 100 100 100 100 100 100 100 100 100 100 100 100 99 92 96 98 91 81 93 92 89 89 90 88 88
68 70 78 80 84 92 97 100 100 100 99 99 100 99 98 99 100 99 100 100 100 100 100 100 100 100 100 100 100 100 100 100 97 96 100 100 99 100 100 100 98 100 99
48 52 58 60 66 80 88 95 95 98 97 99 98 98 99 98 98 99 100 100 100 100 100 100 100 100 100 100 100 100 100 100 100 100 100 100 100 100 100 100 100 100 100
48 49 50 49 49 58 68 76 78 94 93 93 97 96 98 99 98 98 98 98 98 98 98 97 100 99 96 98 100 100 100 100 99 99 100 99 98 97 100 100 100 100 100
52 51 50 49 50 53 56 62 63 64 86 88 90 85 89 96 86 95 98 98 100 100 98 98 98 99 94 97 97 100 100 100 99 100 99 100 99 99 99 95 98 100 100
68 59 57 55 56 57 60 61 65 66 68 76 83 81 76 80 86 72 85 87 93 97 99 98 98 97 97 97 96 98 97 98 96 96 97 97 99 100 100 99 99 99 99
80 85 74 72 68 70 71 68 66 74 73 77 79 82 80 79 74 74 58 72 89 95 95 95 95 96 100 88 84 84 98 100 100 100 100 100 97 98 98 99 99 99 99
77 84 89 82 86 84 80 78 74 71 79 79 82 84 85 79 77 75 68 65 77 78 86 94 94 96 98 97 89 84 90 95 96 95 96 96 97 97 95 98 100 96 96
63 59 71 80 81 86 83 79 80 79 78 78 80 84 86 86 81 78 78 77 74 75 80 81 87 86 89 90 91 94 97 96 94 90 90 90 92 93 96 95 97 100 100
54 47 49 58 66 68 74 72 72 72 70 70 71 72 76 81 82 80 80 83 86 76 83 86 87 84 85 86 86 90 90 90 86 83 84 88 91 92 92 92 91 94 100
43 41 42 49 52 52 55 60 60 62 63 63 63 67 70 72 73 76 77 78 84 83 84 85 84 85 85 85 85 86 89 86 85 82 82 88 91 91 88 87 86 86 88
40 38 40 43 39 46 48 51 58 60 59 62 66 68 69 69 72 72 72 72 78 81 81 80 80 78 79 80 80 82 84 82 81 82 82 84 84 82 79 80 77 76 75
40 38 40 43 43 40 53 59 62 73 71 68 72 74 72 72 75 75 75 78 82 82 75 74 74 73 71 72 72 75 76 76 75 74 72 70 73 73 72 71 69 68 66
39 43 52 50 51 49 48 49 69 82 86 87 84 82 82 79 77 78 77 81 82 79 68 70 72 71 67 65 65 65 68 71 71 67 68 67 67 66 67 62 61 62 60
54 54 59 63 63 63 66 67 66 73 85 93 91 94 92 86 82 82 84 76 73 67 64 66 70 71 64 60 61 62 65 71 70 68 68 72 73 69 65 62 60 61 60
86 80 77 78 78 77 77 79 77 75 72 74 86 86 91 88 84 84 82 72 66 64 62 61 65 65 62 60 68 70 74 75 75 72 72 76 80 73 70 65 62 65 63
78 82 86 84 84 86 81 78 75 73 71 71 70 75 84 82 80 81 82 79 74 69 67 65 65 67 72 70 80 84 78 79 78 76 76 76 80 78 72 69 68 69 68
88 94 88 81 81 79 78 75 72 72 70 70 71 84 83 73 74 75 77 82 81 77 77 73 73 76 80 84 82 84 75 73 72 72 74 76 80 79 74 72 71 70 64
82 79 80 75 77 77 75 74 74 72 71 70 72 87 90 80 76 74 76 81 84 83 84 84 83 83 82 83 81 88 88 84 80 77 77 77 79 78 74 74 72 69 66
75 73 73 73 73 79 76 71 74 73 72 74 76 75 86 82 80 79 81 89 94 89 86 86 89 86 84 89 92 92 87 83 79 81 83 82 79 75 76 77 76 72 70
75 77 72 71 74 78 77 75 77 78 77 81 83 83 85 88 90 88 92 96 96 96 97 97 96 93 90 94 100 96 93 88 88 95 94 90 83 79 82 80 78 76 74
79 80 69 76 86 77 84 84 85 84 85 87 90 90 90 93 95 95 97 100 100 100 100 100 100 100 100 100 100 100 99 98 98 97 100 97 87 82 84 82 80 79 79
90 88 86 83 86 87 87 86 88 92 92 93 94 96 93 97 94 96 100 100 100 100 100 100 100 100 100 100 100 100 100 96 97 91 100 93 88 89 85 84 84 83 80
84 84 84 84 87 89 91 92 93 95 96 98 99 100 100 99 98 100 100 100 99 100 100 100 100 100 100 100 100 100 99 99 100 98 95 98 90 88 88 88 87 86 81

GFSGL_925_rhum_147.txt.gz
RH
74 70 71 82 90 95 98 98 100 100 98 97 99 100 100 100 98 100 100 100 99 100 99 99 100 100 100 98 96 90 85 76 83 76 78 76 78 80 76 73 75 76 74
83 79 71 81 82 89 96 99 98 99 100 99 98 100 99 98 98 99 100 100 100 100 100 100 100 100 99 99 98 99 100 91 86 87 91 85 96 86 83 79 79 82 84
67 56 73 82 82 92 94 96 93 96 97 98 100 98 98 98 98 97 99 100 98 100 99 100 100 100 100 100 100 99 99 100 99 86 85 92 97 83 98 86 88 87 90
57 56 55 52 59 78 85 85 88 95 96 97 96 98 98 98 98 98 98 99 100 100 100 100 100 100 100 100 100 100 100 100 100 96 100 100 100 97 95 99 100 100 100
42 44 48 48 54 62 68 73 76 86 91 91 90 96 98 98 98 98 99 100 99 100 100 100 100 100 100 100 100 100 100 100 99 98 98 98 100 100 99 98 100 100 100
42 43 44 44 46 53 58 63 63 73 79 83 81 80 96 92 87 88 94 96 98 98 98 99 98 100 100 100 100 100 100 100 99 96 96 96 99 99 100 100 100 100 99
46 46 47 48 49 51 52 57 58 60 66 73 74 73 73 90 83 84 87 89 93 97 99 99 98 99 97 97 98 100 99 97 96 99 98 100 98 100 100 99 98 100 100
63 56 56 55 56 57 57 57 61 63 66 67 73 71 74 78 84 71 66 80 84 90 97 98 97 97 99 95 96 99 98 96 97 99 100 100 98 98 100 100 100 100 100
77 83 70 68 64 66 66 63 61 69 71 74 76 81 77 79 79 82 64 68 81 90 92 96 98 98 98 99 91 88 95 96 96 99 99 100 98 98 95 87 98 98 99
68 76 87 77 84 79 73 72 68 66 72 78 82 85 88 79 77 78 79 75 82 81 90 94 91 94 93 96 97 97 96 100 96 94 94 94 97 96 98 95 100 96 96
49 48 59 70 71 79 83 71 77 74 73 79 87 87 87 81 81 75 78 85 84 84 87 90 88 85 88 91 94 96 95 94 94 92 92 93 91 95 92 90 85 99 99
40 39 44 48 50 53 62 63 64 68 70 69 73 75 76 79 74 77 74 79 83 81 84 85 83 81 82 82 87 90 94 95 91 89 90 92 93 95 90 90 86 80 92
32 33 35 35 37 39 43 51 57 58 60 62 62 68 71 74 74 73 76 75 79 83 83 80 77 78 79 82 80 84 87 88 90 89 89 90 89 89 83 86 81 76 84
30 31 32 34 32 38 40 44 58 61 59 62 68 70 72 72 75 75 74 76 81 83 80 78 79 76 74 75 78 81 81 80 82 83 82 81 78 78 77 76 74 72 71
31 32 35 38 36 36 50 52 56 78 76 72 76 78 83 77 79 78 76 77 82 83 87 74 74 71 69 70 70 73 76 75 74 74 75 75 73 70 69 64 64 66 64
33 38 50 47 46 46 47 54 73 73 77 85 88 84 87 81 78 77 76 77 76 75 69 71 74 73 64 62 63 64 68 68 67 65 68 69 69 65 64 59 58 59 58
46 48 53 59 58 60 61 62 63 88 90 96 87 88 81 80 77 77 75 80 71 64 60 64 71 71 61 58 63 61 68 68 66 64 67 68 69 64 62 58 56 58 57
83 72 72 73 74 73 72 73 73 71 70 74 93 84 83 83 77 76 76 71 65 63 61 59 63 63 69 66 70 77 80 78 75 69 72 72 76 67 64 60 59 64 60
72 78 81 79 79 79 76 72 70 68 67 67 66 70 80 78 78 77 78 78 74 67 66 63 64 66 72 74 95 92 89 84 82 76 81 79 79 71 66 62 63 67 63
89 84 80 76 76 73 71 69 65 65 64 66 66 84 85 77 73 73 75 82 79 74 76 71 71 73 78 83 83 84 87 88 79 78 80 80 77 71 67 67 66 65 60
74 71 70 67 70 69 68 65 64 64 65 65 66 88 77 87 74 72 74 80 83 82 84 83 81 81 77 76 76 90 85 86 95 96 86 75 75 70 67 66 66 67 63
66 64 64 64 63 71 69 62 67 69 67 68 71 71 81 79 78 78 80 87 91 89 88 89 90 88 84 86 90 91 89 92 91 97 83 81 75 70 71 71 72 72 72
66 69 63 59 67 68 69 70 71 75 74 76 78 78 80 83 86 85 88 92 93 95 97 97 97 94 92 94 96 93 93 91 98 97 93 88 81 76 76 74 71 76 77
70 73 60 67 82 71 79 78 78 76 78 81 84 85 85 86 89 90 91 94 97 98 100 100 100 97 95 97 99 100 97 98 100 100 99 91 84 81 79 77 75 86 84
81 81 79 75 80 82 82 80 81 85 85 86 87 89 88 90 88 91 95 97 98 99 100 100 100 98 98 100 100 100 100 100 100 93 100 96 88 89 90 84 88 83 88
77 77 79 80 81 83 84 85 85 87 88 90 91 93 94 95 93 97 98 97 99 100 100 100 100 100 100 100 100 100 97 100 100 98 100 99 93 90 87 90 89 88 88